This is the latest recevied weather packets stored in our database for station/object DL6SW-10. If no packets are shown the sender has not sent any weather packets the latest 1 day(s).
| Time | Temp. | Humidity | Pressure | Rain* | Wind** | Luminosity | Snow |
|---|---|---|---|---|---|---|---|
| 1777719239 | 34.44° C | 22% | 1023.3 hPa | - | - | - | - |
| 1777719226 | 34.44° C | 22% | 1023.3 hPa | - | - | - | - |
| 1777718335 | 33.89° C | 23% | 1023.2 hPa | - | - | - | - |
| 1777718325 | 33.89° C | 23% | 1023.2 hPa | - | - | - | - |
| 1777717434 | 32.78° C | 25% | 1024.1 hPa | - | - | - | - |
| 1777717424 | 32.78° C | 25% | 1024.1 hPa | - | - | - | - |
| 1777716534 | 30° C | 26% | 1023.8 hPa | - | - | - | - |
| 1777716523 | 30° C | 26% | 1023.8 hPa | - | - | - | - |
| 1777715628 | 31.67° C | 27% | 1024.1 hPa | - | - | - | - |
| 1777715622 | 31.67° C | 27% | 1024.1 hPa | - | - | - | - |
| 1777714754 | 30.56° C | 28% | 1024.2 hPa | - | - | - | - |
| 1777714721 | 30.56° C | 28% | 1024.2 hPa | - | - | - | - |
| 1777713829 | 29.44° C | 30% | 1024.3 hPa | - | - | - | - |
| 1777713818 | 29.44° C | 30% | 1024.3 hPa | - | - | - | - |
| 1777712921 | 28.33° C | 32% | 1024.3 hPa | - | - | - | - |
| 1777712917 | 28.33° C | 32% | 1024.3 hPa | - | - | - | - |
| 1777712038 | 25.56° C | 34% | 1025 hPa | - | - | - | - |
| 1777712016 | 25.56° C | 34% | 1025 hPa | - | - | - | - |
| 1777711119 | 24.44° C | 35% | 1024.9 hPa | - | - | - | - |
| 1777711115 | 24.44° C | 35% | 1024.9 hPa | - | - | - | - |
| 1777710218 | 23.89° C | 36% | 1024.5 hPa | - | - | - | - |
| 1777710214 | 23.89° C | 36% | 1024.5 hPa | - | - | - | - |
| 1777709317 | 23.33° C | 37% | 1024.8 hPa | - | - | - | - |
| 1777709313 | 23.33° C | 37% | 1024.8 hPa | - | - | - | - |
| 1777708416 | 22.22° C | 39% | 1024.2 hPa | - | - | - | - |
* Rain since midnight (hover to see other rain measurements)
** Current wind speed in m/s (hover to see current wind gust speed)